Regional Weather Roundup
Issued by NWS Wakefield, VA

Home | Current Version | Previous Version | Text Only | Print | Product List | Glossary On
Versions: 1 2 3 4 5 6 7 8 9 10 11 12 13 14 15 16 17 18 19 20 21 22 23 24 25 26 27 28 29 30 31 32 33 34 35 36 37 38 39 40
000
ASUS41 KAKQ 272310
RWRAKQ

REGIONAL WEATHER ROUNDUP
NATIONAL WEATHER SERVICE WAKEFIELD VA
600 PM EST SAT DEC 27 2014

Note: "fair" indicates few or no clouds below 12,000 feet with no
significant weather and/or obstructions to visibility. * = Denotes
station may not report precipitation (e.g., rain,snow,etc.),
thunder or fog.

VAZ042-051-052>054-056-280000-
NORTHERN VIRGINIA

CITY           SKY/WX    TMP DP  RH WIND       PRES   REMARKS
WASH NATIONAL  PTCLDY    55  30  38 CALM      30.20R
DULLES         MOCLDY    48  32  53 S3        30.20R
FORT BELVOIR   CLEAR     45  35  68 CALM      30.21R
QUANTICO       CLEAR     46  35  65 CALM      30.21R
FREDERICKSBRG* CLEAR     46  38  74 CALM      30.19S
STAFFORD*      CLEAR     45  32  60 CALM      30.23S
WARRENTON      CLEAR     44  39  85 CALM      30.18S
CULPEPER*      CLEAR     41  34  75 CALM      30.18S
MANASSAS*      NOT AVBL
LEESBURG*      CLEAR     52  32  46 S6        30.20R
WINCHESTER     CLEAR     50  27  40 S3        30.15F
FRONT ROYAL*   CLEAR     50  30  46 CALM      30.14F
LURAY*         CLEAR     50  30  46 CALM      30.15S
$$

VAZ048-049-060>072-079>083-280000-
CENTRAL AND SOUTH CENTRAL VIRGINIA

CITY           SKY/WX    TMP DP  RH WIND       PRES   REMARKS
RICHMOND       MOCLDY    57  36  45 S6        30.19S
CHESTERFIELD*  PTCLDY    52  30  43 CALM      30.20S
PETERSBURG*    PTCLDY    47  39  72 CALM      30.20S
HANOVER        PTCLDY    47  39  74 CALM      30.20S
TAPPAHANNOCK*  PTCLDY    49  36  60 CALM      30.20R
QUINTON*       CLEAR     51  38  61 CALM      30.19S
CHARLOTTSVILLE CLEAR     51  32  48 N3        30.17S
GORDONSVILLE*  CLEAR     47  35  63 CALM      30.17S
ORANGE*        CLEAR     45  37  76 CALM      30.20S
LOUISA*        CLEAR     45  37  76 CALM      30.16F
BUMPASS*       CLEAR     48  36  63 CALM      30.17F
FARMVILLE*     PTCLDY    55  37  50 SW3       30.18R
CREWE*         CLEAR     50  38  65 S3        30.19R
FORT PICKETT*  CLEAR     49  38  65 S5        30.20R
CHASE CITY*    CLEAR     55  41  60 CALM      30.20R
CLARKSVILLE*   CLEAR     54  37  54 S5        30.20S
SOUTH HILL*    CLEAR     45  39  81 S3        30.27R
LAWRENCEVILLE* CLEAR     50  40  68 CALM      30.21R
EMPORIA*       CLEAR     45  37  76 CALM      30.24R
$$

VAZ088>098-280000-
SOUTHEAST VIRGINIA

CITY           SKY/WX    TMP DP  RH WIND       PRES   REMARKS
NORFOLK        CLEAR     53  36  52 S6        30.22R
VIRGINIA BEACH MOCLDY    53  39  59 S5        30.22S
NORFOLK NAVAL  MOCLDY    58  37  45 VRB3      30.23S
WEST POINT*    CLEAR     49  37  64 CALM      30.22R
SALUDA*        FAIR      49  38  64 SE5       30.20S
NEWPORT NEWS   CLEAR     52  37  56 CALM      30.22R
LANGLEY AFB    PTCLDY    55  36  49 SW5       30.21S
FORT EUSTIS    PTCLDY    50  48  95 CALM      30.20S
WILLIAMSBURG*  CLEAR     54  43  66 CALM      30.22R
HR EXEC AP*    CLEAR     46  36  66 S5        30.24S
FRANKLIN*      CLEAR     48  39  71 CALM      30.22S
WAKEFIELD      CLEAR     46  40  79 CALM      30.21F
$$

VAZ020-022-025-037-045-280000-
WEST CENTRAL AND SOUTHWEST VIRGINIA

CITY           SKY/WX    TMP DP  RH WIND       PRES   REMARKS
STAUNTON*      CLEAR     51  24  35 S5        30.18S
WAYNESBORO*    CLEAR     53  20  26 SW5       30.17S
HOT SPRINGS VA CLEAR     48  11  22 SW9       30.16S
LYNCHBURG      PTCLDY    50  36  58 S5        30.20R
DANVILLE       MOCLDY    54  36  50 S3        30.20R
SOUTH BOSTON*  CLEAR     52  37  55 CALM      30.20S
MARTINSVILLE   PTCLDY    52  37  55 S3        30.22R
ROANOKE        PTCLDY    57  26  30 E3        30.20R
BLACKSBURG     CLEAR     49  26  40 E7        30.21S
DUBLIN*        PTCLDY    55  27  33 CALM      30.19R
MARION*        CLOUDY    56  23  27 W6        30.21R
HILLSVILLE*    MOCLDY    54  30  40 SE7       30.19R
RICHLANDS*     CLOUDY    53  14  20 CALM      30.17S
WISE*          CLOUDY    50  23  34 S5        30.18S
ABINGDON*      CLOUDY    54  35  47 CALM      30.18R
$$

MDZ021>025-VAZ099-100-280000-
SOUTHERN MARYLAND AND THE DELMARVA PENINSULA

CITY           SKY/WX    TMP DP  RH WIND       PRES   REMARKS
PATUXENT RIVER MOCLDY    46  38  73 S5        30.20R
BAY BRIDGE APT   N/A     43  37  81 CALM      30.20R
LEONARDTOWN    CLEAR     45  36  70 CALM      30.21R
DOVER          CLEAR     42  38  85 S5        30.18R
GEORGETOWN     CLEAR     47  40  76 CALM      30.20R
EASTON         NOT AVBL
CAMBRIDGE      CLEAR     48  39  71 CALM      30.20S
SALISBURY      CLEAR     50  37  61 S3        30.20S
OCEAN CITY     CLEAR     47  40  76 SW7       30.22R
WALLOPS ISLAND CLEAR     43  41  93 S8        30.23R
ACCOMACK*      PTCLDY    46  39  76 S6        30.22S
$$

NCZ012>017-030>032-280000-
NORTH CENTRAL AND EASTERN NORTH CAROLINA

CITY           SKY/WX    TMP DP  RH WIND       PRES   REMARKS
ROANOKE RAPIDS CLEAR     46  39  76 CALM      30.23R
RALEIGH        MOCLDY    55  38  52 S5        30.23S
ELIZABETH CITY CLEAR     50  39  66 SE3       30.24S
AHOSKIE*       CLEAR     47  40  75 CALM      30.23R
EDENTON*       CLEAR     50  42  73 CALM      30.24R
CURRITUCK*     CLEAR     50  38  62 CALM      30.25S
KILL DEVIL HLS CLEAR     49  39  68 SE5       30.24S
MANTEO         CLEAR     48  43  81 S5        30.25F
CAPE HATTERAS  CLEAR     44  40  85 N3        30.26F
TARBORO*       CLEAR     47  40  76 CALM      30.25R
GOLDSBORO      CLEAR     52  45  76 S1        30.23R
WASHINGTON     CLEAR     50  39  66 CALM      30.25R
GREENVILLE     CLEAR     46  41  81 CALM      30.26R
NEW BERN       CLEAR     54  41  61 S7        30.26R
WILMINGTON     CLEAR     53  42  66 CALM      30.27R
$$

VAZ048-280000-
ELSEWHERE

CITY           SKY/WX    TMP DP  RH WIND       PRES   REMARKS
HARRISBURG PA  PTCLDY    43  34  70 CALM      30.15R
BALTIMORE      PTCLDY    48  33  56 CALM      30.19R
ANNAPOLIS      CLEAR     43  38  82 CALM      30.20R
ANDREWS AFB    CLEAR     48  31  52 E2        30.19R
PHILADELPHIA   MOCLDY    50  30  46 S5        30.19R
HENDERSON NC   CLEAR     52  35  53 S3        30.22S
GREENSBORO     MOCLDY    57  36  45 S7        30.20R
ROCKY MOUNT    CLEAR     47  41  80 CALM      30.24R
$$

VAZ100-280000-
MARINE

STATION/POSITION TIME  TEMP    WIND        PRES    WAVE   SWELL
                       AIR SEA DIR/SP/G            HT/PER HT/PER
                 (UTC) (F)     (DEG/KT/KT) (MB)    (FT/S) (FT/S)
CAPE MAY NJ      2300   46 46  140/  5/  8 1022.2R
LEWES DE         2300   46 45  180/  6/  9 1022.3R
15NM E FENWICK I 2300   47 45              1022.9R   3/15
OCEAN-CITY-INLET 2300   46 45  220/  7/  8 1022.7S
WACHAPREAGUE VA  2300   46 49  220/  4/  5 1023.5R
THOMAS POINT MD  2300   46 43  220/  5/  5 1023.8R
GOOSES REEF MD   2300   45     VRB  6/  6  1021.6S
COVE POINT MD    2300   48     190/  7/  8 1022.4R
SOLOMONS ISLAND  2300      44                N/A
BISHOPS HEAD MD  2300   47 47  170/  7/  8 1022.0F
PINEY POINT MD   2300          160/  5/  5   N/A
POTOMAC MD       2300   45      90/  4/  4 1021.7S
CAMBRIDGE MD     2300   50 43  180/  3/  5 1022.3R
LEWISETTA VA     2300   44 44  200/  3/  4 1022.2S
RAPPAHANNOCK LGT 2300          130/  9/  9 1023.5S
STINGRAY PT      2300   47     170/  8/  8 1023.3R
YORK RVR RNG VA  2300   49     190/  4/  4 1022.4R
YORKTOWN VA      2300   56 46  200/  2/  2 1022.8R
JAMESTOWN VA     2300   51     160/  4/  4   N/A
DOMINION TERM VA 2300   53     190/  7/  7 1023.1R
KIPTOPEKE VA     2300      51  160/  7/  9   N/A
CHES BAY BRIDGE  2300   56 46  170/  9/  9 1022.6R
CAPE HENRY VA    2300   51     160/  6/  7 1022.1R
CHESAPEAKE LGHT  2200   51     180/ 18/ 18 1024.0S
WILLOUBY STN VA  2300   58     190/  8/  8 1023.5R
S CRANEY ISL VA  2300          180/  4/  5 1023.0R
CAPE HENRY BUOY  2300      48                N/A     2/14   2/14
1ST LANDING BUOY 2300   48     140/  8/ 10 1022.7F
CAPE CHARLES BUO 2300      48                N/A     2/17   2/17
64NM E OF VA BCH 2300   52 53  200/  8/ 10 1024.5R   4/16   3/16
DUCK PIER NC     2300   50 49  140/  8/  9 1023.3S
44100 DUCK FRF   2300      51                N/A     3/15   3/15
44056 DUCK FRF   2300      49                N/A     3/15   3/15
OREGON INLET NC  2300   50 53  160/  5/  7 1024.3F
HATTERAS NC      2300   51 55   CALM  /  1 1025.1S
DIAMOND SHLS NC  2300   62                 1025.2R   3/16
CAPE LOOKOUT NC  2300   56     150/  3/  3 1024.8S
$$


USA.gov is the U.S. government's official web portal to all federal, state and local government web resources and services.